Santa Monica, CA

7:08 PM PDT on June 23, 2017 (GMT -0700)
Santa Monica Municipal

Weather History for KSMO - October, 2012

Change the Weather History Date:

Tuesday, October 30, 2012

  Actual Average Record
Temperature  
Mean Temperature 60 °F -  
Max Temperature 68 °F 74 °F 95 °F (1962)
Min Temperature 55 °F 53 °F 41 °F (1946)
Degree Days  
Heating Degree Days 4    
Growing Degree Days 10 (Base 50)    
Moisture  
Dew Point 54 °F    
Average Humidity 81    
Maximum Humidity 90    
Minimum Humidity 57    
Precipitation  
Precipitation 0.00 in - - ()
Sea Level Pressure  
Sea Level Pressure 30.04 in    
Wind  
Wind Speed 1 mph (SW)    
Max Wind Speed 7 mph    
Max Gust Speed -    
Visibility 5 miles    
Events Fog    
Averages and records for this station are not official NWS values.
T = Trace of Precipitation, MM = Missing Value Source: NWS Daily Summary

Daily Weather History Graph

Daily Weather History Graph

Search for Another Location

Airport or City:

Trip Planner

Search our weather history database for the weather conditions in past years. The results will help you decide how hot, cold, wet, or windy it might be!

Date:

Astronomy

Oct. 30, 2012 Rise Set
Actual Time 7:12 AM PDT 6:02 PM PDT
Civil Twilight 6:46 AM PDT 6:28 PM PDT
Nautical Twilight 6:16 AM PDT 6:57 PM PDT
Astronomical Twilight 5:47 AM PDT 7:26 PM PDT
Moon 6:39 PM PDT (10/30) 7:59 AM PDT (10/30)
Length of Visible Light 11h 41m
Length of Day
10h 50m
Full, 99% of the Moon is Illuminated
Oct 30
Full
Nov 6
Last Quarter
Nov 13
New
Nov 20
First Quarter
Nov 28
Full

Hourly Weather History & Observations

Time (PDT) Temp. Dew Point Humidity Pressure Visibility Wind Dir Wind Speed Gust Speed Precip Events Conditions
12:38 AM 60.8 °F 57.2 °F 88% 30.06 in 1.5 mi Calm Calm - N/A   Overcast
12:41 AM 60.8 °F 57.2 °F 88% 30.06 in 3.0 mi Calm Calm - N/A   Overcast
12:51 AM 59.0 °F 55.9 °F 90% 30.06 in 3.0 mi Calm Calm - N/A   Overcast
1:23 AM 59.0 °F 55.4 °F 88% 30.07 in 5.0 mi Calm Calm - N/A   Overcast
1:51 AM 59.0 °F 55.0 °F 87% 30.06 in 4.0 mi Calm Calm - N/A   Overcast
2:29 AM 59.0 °F 55.4 °F 88% 30.07 in 3.0 mi SE 3.5 mph - N/A   Overcast
2:40 AM 59.0 °F 55.4 °F 88% 30.07 in 2.5 mi SE 3.5 mph - N/A   Overcast
2:51 AM 57.9 °F 55.0 °F 90% 30.06 in 1.8 mi Calm Calm - N/A   Overcast
3:06 AM 57.2 °F 53.6 °F 88% 30.06 in 1.2 mi Calm Calm - N/A   Overcast
3:14 AM 57.2 °F 53.6 °F 88% 30.05 in 1.5 mi Calm Calm - N/A   Overcast
3:51 AM 57.9 °F 54.0 °F 87% 30.04 in 1.5 mi Calm Calm - N/A   Overcast
4:19 AM 57.2 °F 53.6 °F 88% 30.04 in 2.0 mi Calm Calm - N/A   Overcast
4:51 AM 57.0 °F 53.1 °F 87% 30.04 in 1.8 mi Calm Calm - N/A   Overcast
5:04 AM 57.2 °F 53.6 °F 88% 30.05 in 2.0 mi Calm Calm - N/A   Overcast
5:12 AM 55.4 °F 51.8 °F 88% 30.05 in 1.5 mi Calm Calm - N/A   Overcast
5:24 AM 55.4 °F 51.8 °F 88% 30.05 in 1.0 mi Calm Calm - N/A   Overcast
6:51 AM 55.0 °F 52.0 °F 89% 30.05 in 0.2 mi Calm Calm - N/A Fog Fog
8:37 AM 55.4 °F 51.8 °F 88% 30.07 in 1.2 mi Calm Calm - N/A   Scattered Clouds
8:51 AM 55.0 °F 52.0 °F 89% 30.08 in 1.8 mi Calm Calm - N/A   Partly Cloudy
9:00 AM 55.4 °F 51.8 °F 88% 30.07 in 2.0 mi Calm Calm - N/A   Clear
9:13 AM 57.2 °F 51.8 °F 82% 30.08 in 3.0 mi Calm Calm - N/A   Haze
9:51 AM 63.0 °F 52.0 °F 67% 30.07 in 4.0 mi SSW 3.5 mph - N/A   Haze
10:51 AM 64.0 °F 48.9 °F 58% 30.07 in 5.0 mi WSW 5.8 mph - N/A   Haze
12:51 PM 66.9 °F 51.1 °F 57% 30.03 in 7.0 mi WSW 5.8 mph - N/A   Clear
1:51 PM 66.0 °F 53.1 °F 63% 30.01 in 10.0 mi WSW 5.8 mph - N/A   Clear
2:51 PM 66.9 °F 52.0 °F 59% 30.00 in 9.0 mi WSW 5.8 mph - N/A   Clear
3:51 PM 66.0 °F 54.0 °F 65% 29.99 in 8.0 mi WSW 6.9 mph - N/A   Clear
4:51 PM 64.9 °F 54.0 °F 68% 29.98 in 10.0 mi SW 5.8 mph - N/A   Clear
5:51 PM 64.0 °F 55.0 °F 73% 29.97 in 10.0 mi SW 5.8 mph - N/A   Clear
6:51 PM 62.1 °F 55.0 °F 78% 29.99 in 10.0 mi SW 4.6 mph - N/A   Clear
8:02 PM 62.6 °F 55.4 °F 77% 29.99 in 10.0 mi SW 4.6 mph - N/A   Mostly Cloudy
8:51 PM 62.1 °F 55.9 °F 80% 30.00 in 10.0 mi Calm Calm - N/A   Overcast
9:51 PM 62.1 °F 55.9 °F 80% 30.01 in 10.0 mi Calm Calm - N/A   Overcast
10:51 PM 61.0 °F 55.0 °F 81% 30.02 in 9.0 mi Calm Calm - N/A   Overcast
11:51 PM 61.0 °F 55.0 °F 81% 30.03 in 9.0 mi SSW 3.5 mph - N/A   Overcast